This demonstration page uses our WeatherBlox Daily Observations layout. Learn more.

Hourly Observations for January 21, 2016

Temp ( °F °C ) Dew Point ( °F °C ) Humidity (%) Winds ( mph kmh ) Pressure ( in mb ) Visibility ( mi km ) Precip ( " mm )
12:15 am 00:15 Cloudy with Light Snow 28 -2.5 26 -3.1 96 96 Calm 30.15 1021 1.25 2.011675 0.01 0.254
12:35 am 00:35 Cloudy with Light Snow 28 -2.5 26 -3.1 96 96 Calm 30.15 1021 1.25 2.011675 0.02 0.508
12:55 am 00:55 Cloudy with Light Snow 27 -2.6 26 -3.3 95 95 Calm 30.15 1021 1.5 2.41401 0.03 0.762
1:15 am 01:15 Cloudy with Light Snow 27 -2.6 26 -3.3 95 95 Calm 30.15 1021 1.5 2.41401 0 0
1:35 am 01:35 Cloudy with Light Snow 27 -2.6 26 -3.4 94 94 Calm 30.15 1021 1.75 2.816345 0.01 0.254
1:55 am 01:55 Cloudy with Light Snow 27 -2.7 26 -3.5 94 94 Calm 30.15 1021 3 4.82802 0.01 0.254
2:15 am 02:15 Cloudy with Light Snow 27 -3 25 -3.8 94 94 E 7 11 30.15 1021 2 3.21868 0 0
2:35 am 02:35 Cloudy with Light Snow 26 -3.3 25 -4.1 94 94 E 6 9 30.15 1021 2.5 4.02335 0 0
2:55 am 02:55 Cloudy with Light Snow 26 -3.4 24 -4.2 94 94 E 6 9 30.21 1023 4 6.43736 0 0
3:15 am 03:15 Cloudy with Light Snow 26 -3.5 24 -4.3 94 94 E 3 6 30.21 1023 3 4.82802 0 0
3:35 am 03:35 Cloudy with Light Snow 26 -3.5 24 -4.3 94 94 E 3 6 30.21 1023 3 4.82802 0 0
3:55 am 03:55 Cloudy with Light Snow 26 -3.5 24 -4.3 94 94 Calm 30.21 1023 1.75 2.816345 0 0
4:15 am 04:15 Cloudy with Light Snow 26 -3.5 24 -4.3 94 94 Calm 30.21 1023 2 3.21868 0 0
4:35 am 04:35 Cloudy with Light Snow 26 -3.5 24 -4.2 95 95 Calm 30.21 1023 1.5 2.41401 0.01 0.254
4:55 am 04:55 Cloudy with Light Snow 26 -3.5 24 -4.2 95 95 Calm 30.24 1024 3 4.82802 0.01 0.254
5:15 am 05:15 Cloudy with Mist and Fog 26 -3.5 24 -4.2 95 95 N 3 6 30.24 1024 5 8.0467 0 0
5:35 am 05:35 Cloudy with Mist and Fog 26 -3.5 24 -4.2 95 95 N 3 6 30.24 1024 5 8.0467 0 0
5:55 am 05:55 Cloudy with Light Snow 26 -3.3 25 -4.1 94 94 Calm 30.27 1025 4 6.43736 0 0
6:15 am 06:15 Cloudy with Light Snow 26 -3.3 25 -4.1 94 94 N 3 6 30.27 1025 4 6.43736 0 0
6:35 am 06:35 Cloudy with Light Snow 26 -3.3 25 -4.1 94 94 N 3 6 30.27 1025 3 4.82802 0 0
6:55 am 06:55 Cloudy with Light Snow 26 -3.3 25 -4.1 94 94 Calm 30.27 1025 1.75 2.816345 0 0
7:15 am 07:15 Cloudy with Light Snow 26 -3.2 25 -4 94 94 N 3 6 30.27 1025 2 3.21868 0 0
7:35 am 07:35 Cloudy with Light Snow 26 -3.1 25 -4 94 94 N 3 6 30.27 1025 2 3.21868 0 0
7:55 am 07:55 Cloudy with Light Snow 26 -3.1 25 -4 94 94 N 5 7 30.27 1025 2.5 4.02335 0 0
8:15 am 08:15 Cloudy with Light Snow 26 -3.1 25 -4 94 94 N 3 6 30.3 1026 2 3.21868 0 0
8:35 am 08:35 Cloudy with Light Snow 27 -2.8 26 -3.6 94 94 N 9 15 30.3 1026 4 6.43736 0 0
8:55 am 08:55 Cloudy with Light Snow 27 -2.7 25 -3.9 92 92 N 12 19 30.3 1026 5 8.0467 0 0
9:15 am 09:15 Cloudy with Light Snow 27 -2.9 24 -4.4 90 90 N 9 15 30.33 1027 7 11.26538 0 0
9:35 am 09:35 Cloudy with Light Snow 27 -2.7 24 -4.5 88 88 N 10 17 30.33 1027 7 11.26538 0 0
9:55 am 09:55 Cloudy 27 -2.6 24 -4.5 87 87 N 13 20 30.36 1028 10 16.0934 0 0
10:15 am 10:15 Cloudy 28 -2.5 24 -4.5 86 86 N 13 20 30.36 1028 10 16.0934 0 0
10:35 am 10:35 Cloudy with Light Snow 28 -2.5 24 -4.2 88 88 N 12 19 30.36 1028 4 6.43736 0 0
10:55 am 10:55 Cloudy with Light Snow 28 -2.2 25 -4 88 88 N 12 19 30.39 1029 3 4.82802 0 0
11:15 am 11:15 Cloudy with Light Snow 28 -2 25 -3.9 87 87 NNW 16 26 30.39 1029 4 6.43736 0 0
11:35 am 11:35 Cloudy with Light Snow 28 -2 25 -4 86 86 N 13 20 30.39 1029 4 6.43736 0 0
11:55 am 11:55 Cloudy with Light Snow 28 -2 25 -4 86 86 N 13 20 30.39 1029 4 6.43736 0 0
12:15 pm 12:15 Cloudy 28 -2 25 -4 86 86 N 14 22 30.39 1029 10 16.0934 0 0
12:35 pm 12:35 Cloudy 28 -2 25 -4 86 86 N 14 22 30.39 1029 10 16.0934 0 0
12:55 pm 12:55 Cloudy 28 -2 25 -3.8 88 88 N 13 20 30.36 1028 7 11.26538 0 0
1:15 pm 13:15 Cloudy 28 -2.1 26 -3.6 90 90 N 16 26 30.36 1028 7 11.26538 0 0
1:35 pm 13:35 Cloudy 28 -2.2 25 -3.8 89 89 N 14 22 30.36 1028 7 11.26538 0 0
1:55 pm 13:55 Cloudy 28 -2.5 25 -4.1 89 89 N 13 20 30.36 1028 7 11.26538 0 0
2:15 pm 14:15 Cloudy 28 -2.3 25 -4.1 88 88 N 13 20 30.36 1028 10 16.0934 0 0
2:35 pm 14:35 Cloudy 28 -2.3 25 -4 88 88 N 14 22 30.36 1028 10 16.0934 0 0
2:55 pm 14:55 Cloudy 28 -2.5 24 -4.3 88 88 N 13 20 30.36 1028 10 16.0934 0 0
3:15 pm 15:15 Cloudy 28 -2.3 24 -4.3 86 86 N 10 17 30.36 1028 10 16.0934 0 0
3:35 pm 15:35 Cloudy 28 -2.3 24 -4.4 86 86 N 13 20 30.39 1029 10 16.0934 0 0
3:55 pm 15:55 Cloudy 27 -2.6 24 -4.7 86 86 N 13 20 30.39 1029 10 16.0934 0 0
4:15 pm 16:15 Cloudy 27 -2.6 23 -4.8 85 85 N 10 17 30.39 1029 10 16.0934 0 0
4:35 pm 16:35 Cloudy 27 -2.6 24 -4.7 86 86 N 12 19 30.39 1029 10 16.0934 0 0
4:55 pm 16:55 Cloudy 27 -2.6 24 -4.7 86 86 N 9 15 30.39 1029 10 16.0934 0 0
5:15 pm 17:15 Cloudy 27 -2.6 24 -4.7 86 86 NNW 9 15 30.39 1029 10 16.0934 0 0
5:35 pm 17:35 Cloudy 27 -2.7 23 -5 84 84 N 10 17 30.39 1029 10 16.0934 0 0
5:55 pm 17:55 Cloudy 27 -2.8 23 -5 85 85 N 8 13 30.39 1029 10 16.0934 0 0
6:15 pm 18:15 Cloudy 27 -2.8 23 -4.8 86 86 N 8 13 30.42 1030 10 16.0934 0 0
6:35 pm 18:35 Cloudy 27 -2.9 23 -5.1 85 85 N 8 13 30.42 1030 10 16.0934 0 0
6:55 pm 18:55 Cloudy 26 -3.2 22 -5.4 85 85 N 9 15 30.42 1030 10 16.0934 0 0
7:15 pm 19:15 Mostly Cloudy 24 -4.3 21 -6 88 88 N 7 11 30.45 1031 10 16.0934 0 0
7:35 pm 19:35 Partly Cloudy 22 -5.7 19 -7.4 88 88 N 8 13 30.45 1031 10 16.0934 0 0
7:55 pm 19:55 Mostly Cloudy 20 -6.8 17 -8.1 91 91 NNE 7 11 30.48 1032 10 16.0934 0 0
8:15 pm 20:15 Cloudy 23 -4.9 21 -6.2 91 91 NNE 6 9 30.48 1032 10 16.0934 0 0
8:35 pm 20:35 Cloudy 24 -4.5 21 -6.1 89 89 NNE 6 9 30.48 1032 10 16.0934 0 0
8:55 pm 20:55 Cloudy 26 -3.6 22 -5.5 87 87 N 10 17 30.48 1032 10 16.0934 0 0
9:15 pm 21:15 Cloudy 26 -3.5 22 -5.5 86 86 N 10 17 30.45 1031 10 16.0934 0 0
9:35 pm 21:35 Cloudy 26 -3.5 22 -5.5 86 86 N 13 20 30.45 1031 10 16.0934 0 0
9:55 pm 21:55 Cloudy 26 -3.5 22 -5.5 86 86 N 10 17 30.45 1031 10 16.0934 0 0
10:15 pm 22:15 Cloudy 26 -3.5 22 -5.3 88 88 N 9 15 30.45 1031 10 16.0934 0 0
10:35 pm 22:35 Cloudy 26 -3.5 22 -5.3 88 88 N 9 15 30.45 1031 10 16.0934 0 0
10:55 pm 22:55 Cloudy 26 -3.5 23 -5.1 89 89 N 6 9 30.45 1031 10 16.0934 0 0
11:15 pm 23:15 Cloudy 26 -3.5 23 -5 89 89 N 6 9 30.45 1031 10 16.0934 0 0
11:35 pm 23:35 Cloudy 26 -3.5 23 -5.1 89 89 N 8 13 30.45 1031 10 16.0934 0 0
11:55 pm 23:55 Cloudy 25 -3.7 22 -5.5 87 87 N 10 17 30.48 1032 10 16.0934 0 0

Powered by AerisWeather